Theta_e
320 321 320 320 320 321 321 321 321 323 322 321 321 321 321 320 323 322 321 321 320 322 322 321 321 324 323 324 326 327 327 327 320 324 327 332 337 339 340 343 341 342 336
318 317 318 319 319 320 320 321 321 320 321 320 320 319 319 317 320 319 317 317 317 317 317 317 316 315 320 322 323 326 325 327 323 320 327 325 333 336 334 338 338 337 338
316 316 317 317 318 319 319 320 320 319 319 319 317 317 316 316 315 316 315 316 317 317 316 316 314 314 314 315 319 320 324 326 327 323 322 327 327 330 332 336 338 339 338
314 314 315 316 317 317 318 318 318 318 317 316 316 315 315 314 314 314 314 314 313 313 314 314 312 311 310 313 313 315 320 322 324 323 323 323 322 329 330 329 330 335 335
312 312 313 315 316 316 316 315 315 315 315 315 314 314 314 313 311 312 311 310 310 309 310 310 310 311 310 310 309 311 312 313 319 321 321 321 319 319 323 328 329 330 335
312 311 312 313 314 314 314 312 312 312 312 313 313 312 312 310 305 303 306 308 308 307 306 308 309 309 309 307 307 307 309 311 311 316 320 319 320 323 323 324 327 326 326
310 311 311 311 311 312 311 310 310 310 313 312 311 311 312 312 303 301 302 306 307 307 307 307 306 306 307 307 306 306 306 306 307 313 317 320 322 325 326 327 329 329 329
308 308 308 307 307 307 307 308 309 311 312 309 309 310 310 308 302 299 300 305 305 307 307 308 305 305 306 305 307 309 311 315 319 316 318 322 326 327 328 329 331 332 334
306 305 304 304 303 303 302 304 307 309 307 307 309 309 307 308 302 298 300 305 304 304 306 307 305 305 302 299 304 304 305 308 314 310 310 309 304 304 314 329 327 326 324
302 301 301 301 300 299 298 302 305 306 306 307 307 307 306 309 301 298 300 303 301 300 302 302 302 302 299 298 302 302 304 310 317 322 324 316 307 316 306 325 325 322 325
299 299 299 299 298 297 299 301 304 305 305 305 305 306 307 307 307 299 296 299 299 299 299 300 304 298 296 295 295 302 306 311 315 318 322 323 324 325 327 326 329 331 328
295 296 296 296 297 297 300 301 303 303 303 304 303 303 306 308 303 300 296 296 298 298 299 302 304 298 295 296 297 297 296 299 308 314 317 317 317 319 324 327 330 333 336
292 294 294 295 296 296 299 300 301 302 303 301 300 301 305 308 309 299 297 296 296 299 302 304 297 296 296 299 298 294 297 312 313 314 314 315 317 319 324 324 328 329 329
291 292 293 293 294 295 298 299 298 299 299 299 299 301 305 307 305 305 303 303 300 299 304 304 302 299 299 301 306 310 313 312 310 311 313 315 318 318 320 323 322 322 320
290 291 292 293 293 294 296 296 296 298 298 297 298 301 304 303 303 298 298 297 297 297 295 308 313 313 314 314 315 316 315 315 312 312 311 314 315 315 317 321 321 321 319
289 290 291 292 292 293 294 295 295 294 294 293 292 295 305 299 296 294 293 292 291 291 306 315 317 318 315 316 317 317 318 314 316 315 313 315 313 316 318 320 322 322 316
289 289 289 290 290 291 292 292 292 296 296 295 295 295 294 294 293 293 292 291 291 293 316 318 319 316 315 317 318 319 316 316 319 317 316 315 318 321 320 321 321 321 317
288 288 288 289 290 290 290 291 293 293 294 300 302 299 297 294 293 293 294 295 315 310 319 318 317 318 316 316 319 319 321 322 323 322 322 321 323 323 322 322 322 321 317
289 287 287 289 289 289 291 291 292 293 296 298 305 304 302 297 297 295 294 313 317 317 318 316 319 318 318 317 317 320 322 321 320 324 322 323 323 325 323 322 321 310 311
291 287 286 287 288 289 289 289 289 291 292 294 296 298 296 300 307 312 317 317 316 317 318 319 319 321 319 318 317 317 318 319 319 323 324 324 326 326 324 325 323 321 320
294 289 287 286 286 287 288 287 288 289 290 292 295 296 289 298 304 311 319 318 316 317 319 318 317 319 320 321 319 317 319 321 324 321 324 323 324 324 330 327 325 324 321
295 293 289 286 286 286 286 287 287 288 289 290 291 292 289 295 299 300 307 316 317 319 318 321 320 320 321 320 322 323 321 320 325 323 322 324 326 328 329 327 324 323 317
294 294 291 289 287 286 286 286 287 286 287 288 289 289 290 290 295 297 300 306 314 320 322 322 319 320 322 324 323 321 316 319 321 323 326 326 325 326 326 325 324 320 319
294 293 292 290 288 287 285 286 285 284 285 285 287 287 288 289 291 292 296 302 308 317 320 323 323 323 324 321 319 316 314 314 321 321 321 324 324 322 325 323 321 321 319
292 292 291 290 288 288 288 286 285 285 285 285 285 285 287 288 289 291 297 299 305 309 311 316 321 322 316 312 312 309 293 289 304 295 322 321 325 325 323 319 315 318 318
292 291 290 289 288 285 287 287 287 285 285 285 285 285 285 286 286 288 290 294 297 302 305 308 312 316 312 309 301 291 289 288 295 289 306 322 323 325 322 316 311 316 313
Wind_Speed
2 1 3 5 7 7 8 9 10 11 12 13 14 15 15 15 14 12 12 14 16 15 15 15 16 17 14 13 14 14 15 14 17 11 12 12 12 10 12 13 9 8 9
3 5 6 7 8 9 10 11 11 12 13 13 15 16 16 15 13 14 14 16 17 16 15 16 17 13 17 15 13 17 17 17 15 17 12 10 11 11 14 14 10 12 11
6 7 8 9 10 11 12 12 13 13 14 14 15 15 15 15 16 15 16 17 17 17 16 17 16 14 14 13 16 16 15 13 15 16 15 12 11 12 12 12 11 10 10
8 8 9 10 10 11 12 13 13 13 14 14 14 14 14 15 16 16 18 17 17 16 17 18 16 15 15 16 16 18 16 16 15 14 13 11 10 10 10 11 10 9 11
9 10 11 11 12 12 12 12 13 14 14 15 14 14 15 12 12 13 16 19 19 18 18 18 19 19 23 19 14 17 17 15 13 13 14 12 10 9 12 8 10 10 10
11 12 12 13 13 13 12 12 13 13 14 12 13 13 13 12 13 14 18 19 18 19 18 20 19 22 22 23 28 29 23 19 20 15 13 13 13 11 10 10 10 10 10
12 12 13 13 14 13 12 13 14 13 11 13 12 14 16 17 15 21 17 17 18 18 19 17 16 15 18 19 23 24 27 29 30 21 20 17 16 12 12 13 13 11 10
12 12 12 13 13 14 13 15 14 12 11 10 13 15 15 13 14 14 15 18 16 19 19 20 18 18 19 19 20 20 21 20 20 17 20 19 16 15 15 14 14 12 9
12 12 12 13 14 14 14 15 14 11 11 12 13 15 16 16 16 12 17 16 15 16 18 18 17 18 19 18 19 19 20 20 20 20 18 16 12 14 15 10 11 10 7
12 13 14 13 14 14 13 14 14 11 13 12 13 15 18 18 15 15 15 10 12 12 15 16 21 19 24 24 18 16 19 17 18 17 13 15 12 16 17 17 11 11 8
14 15 14 13 14 14 15 14 12 12 14 13 13 15 17 17 16 15 7 7 9 10 10 11 13 11 10 12 13 13 19 18 20 13 12 11 10 13 12 14 15 10 8
14 15 14 14 11 12 14 14 12 13 12 13 14 13 12 13 14 8 6 13 17 12 13 12 14 15 13 18 15 19 16 16 12 13 12 9 8 8 9 12 15 12 9
13 14 14 14 13 12 13 13 11 11 8 10 9 10 13 12 8 4 12 17 17 10 12 11 14 14 18 21 18 15 10 5 6 7 7 4 4 4 11 11 12 12 9
14 13 11 11 12 12 9 9 10 10 9 8 9 10 13 11 5 7 9 10 10 11 12 8 10 12 16 9 6 3 2 6 8 8 7 3 2 5 10 10 13 11 7
11 11 11 8 10 10 10 9 9 11 8 9 11 11 12 11 10 9 13 10 9 11 12 8 7 6 6 6 4 5 3 2 5 4 5 6 6 9 9 12 10 11 9
10 8 9 9 8 9 8 9 11 14 14 17 19 17 13 12 17 15 15 16 17 15 4 8 6 3 4 5 3 5 5 5 4 4 5 5 3 2 6 8 10 8 9
11 12 9 10 9 8 8 8 10 11 13 16 16 17 14 13 18 19 13 12 17 11 6 7 6 4 3 7 6 7 5 5 4 6 5 5 5 5 6 6 8 9 9
11 16 10 9 8 9 9 9 8 9 11 12 12 10 1 8 15 15 8 7 7 4 7 8 5 6 6 4 4 5 5 1 2 4 5 6 7 7 6 7 8 10 9
8 9 10 9 8 10 8 8 8 9 9 10 11 15 14 10 15 6 4 4 6 4 6 7 2 5 4 4 7 8 6 4 3 4 7 7 9 6 6 5 6 11 10
7 16 13 9 9 9 9 9 9 10 9 9 9 11 14 10 8 7 2 1 5 7 8 8 5 4 4 5 7 6 6 4 4 5 6 5 9 8 8 8 9 9 9
9 7 14 9 10 10 10 9 9 9 9 10 10 11 18 10 10 10 4 2 4 4 8 7 4 5 9 9 6 8 6 6 8 4 7 7 9 6 9 10 7 7 8
9 9 8 10 9 11 10 9 10 10 11 11 12 14 20 12 12 13 14 5 6 7 9 4 5 7 9 2 9 8 12 10 9 7 8 9 10 9 7 9 8 7 9
11 11 11 9 9 10 11 11 11 12 11 12 11 12 13 12 12 12 11 9 10 7 10 9 8 10 9 10 11 12 11 9 8 6 7 9 10 9 8 6 9 7 5
12 12 12 11 9 9 10 10 12 14 12 11 12 12 12 12 13 14 14 15 12 11 13 12 12 14 11 10 11 12 12 12 11 11 12 10 8 10 7 5 5 6 8
12 12 12 12 13 11 10 10 10 11 12 12 12 11 11 10 11 12 15 16 14 13 14 15 13 17 23 23 22 21 17 16 13 13 11 10 10 13 8 6 7 6 6
11 12 11 11 12 12 13 11 11 10 10 11 11 12 11 13 14 13 14 16 15 14 15 12 16 21 20 18 20 19 19 17 15 16 13 9 9 8 7 7 6 4 8
Wind_Direction
131 15 322 332 314 311 299 294 291 292 290 289 288 284 281 281 281 279 275 277 275 275 273 276 278 283 281 278 279 276 266 263 267 268 264 270 280 276 293 295 269 246 257
337 326 317 306 305 299 293 294 293 289 286 285 282 281 282 285 277 271 273 280 279 279 281 283 279 281 285 281 275 268 265 272 278 277 266 266 275 290 286 277 271 276 267
336 318 320 314 306 302 301 296 292 290 287 282 285 282 280 277 279 279 280 277 276 275 277 275 277 276 277 283 285 282 279 267 264 264 263 265 273 264 270 266 249 244 267
324 316 305 299 296 293 291 287 284 286 287 287 283 281 282 281 283 290 295 301 300 293 290 290 287 278 275 277 275 283 285 273 266 265 265 262 254 258 263 268 272 236 249
316 308 303 299 292 288 288 295 295 289 287 288 287 289 292 303 293 296 302 296 292 289 285 283 281 278 281 281 282 281 280 284 286 267 258 251 258 262 256 253 255 267 259
310 307 307 303 300 295 298 295 287 280 284 283 280 287 291 276 298 300 281 278 276 272 276 280 278 273 267 264 261 258 260 269 267 273 271 257 248 250 270 271 258 255 255
313 314 309 306 300 298 301 295 291 287 283 284 293 285 285 285 278 266 259 281 284 280 281 280 276 272 273 274 275 263 255 256 243 251 262 259 265 268 262 261 246 245 245
314 312 311 310 306 303 302 294 285 283 286 287 287 287 288 282 262 289 280 290 279 284 290 281 280 270 268 268 270 274 273 271 258 232 242 251 251 255 253 252 252 243 242
314 318 314 310 304 302 297 294 288 287 290 286 290 291 288 282 279 294 291 299 293 297 296 283 274 273 265 266 270 269 273 271 270 240 235 243 247 259 253 244 235 230 223
324 317 312 309 300 295 292 291 292 296 285 285 287 292 285 284 308 275 280 287 290 294 291 285 281 264 263 265 259 262 267 265 268 260 239 241 243 249 225 229 230 227 215
327 316 310 305 300 297 287 282 281 283 285 286 289 293 297 293 295 274 246 293 282 287 284 282 280 280 272 274 262 267 258 263 265 271 261 238 227 232 223 215 222 228 225
320 315 310 308 297 293 291 292 286 285 285 287 297 293 290 288 263 263 285 278 281 284 283 281 275 274 278 293 293 284 248 249 254 253 246 221 218 219 215 215 205 207 215
309 312 314 310 303 296 296 292 292 289 293 296 294 293 294 290 307 360 281 273 279 285 286 271 279 289 288 291 285 279 280 260 223 212 207 185 194 229 229 190 190 178 163
318 316 313 310 315 303 302 307 307 301 294 295 297 294 300 299 359 321 317 317 320 312 299 282 272 269 277 289 296 306 320 33 29 16 82 106 351 295 152 158 137 138 141
320 320 320 318 313 314 313 306 297 290 289 301 290 291 301 313 309 299 302 306 300 289 306 285 266 254 198 223 235 170 158 150 48 41 33 55 34 11 39 99 114 125 116
328 332 328 322 327 321 315 315 293 275 280 270 260 256 280 283 291 295 305 301 299 289 279 289 277 331 42 78 61 137 140 104 132 123 77 62 45 68 71 91 104 90 102
346 341 336 334 329 326 328 323 319 318 288 279 276 283 258 262 285 289 288 291 279 293 274 277 286 68 97 27 89 69 86 129 177 153 164 170 186 119 114 115 120 121 111
356 351 339 333 337 335 331 324 320 325 323 327 310 307 15 285 289 296 316 313 281 231 286 315 8 59 44 357 71 88 83 112 121 131 130 142 136 126 130 137 131 126 116
18 355 346 342 345 338 331 334 341 337 339 341 351 1 355 334 315 330 48 298 304 305 310 314 41 76 81 56 52 41 40 88 302 105 118 119 124 116 105 97 110 114 117
41 18 2 359 349 349 352 353 354 354 352 352 347 2 346 335 357 337 232 314 294 331 315 310 46 63 71 62 65 67 27 107 79 40 38 105 135 132 135 118 120 130 129
16 34 7 11 2 359 356 355 356 356 354 350 355 356 346 349 352 357 25 115 280 308 304 293 11 21 43 19 60 62 73 52 72 123 57 47 51 108 133 133 138 123 116
19 35 27 12 3 7 0 358 3 2 3 360 353 354 354 358 3 2 359 348 301 292 268 351 17 48 85 40 28 32 49 15 44 34 55 50 50 61 78 100 88 100 117
16 23 25 27 6 6 8 11 11 8 7 2 359 0 359 356 357 356 351 328 309 1 358 22 13 56 38 36 47 38 23 24 40 25 37 68 60 64 61 83 122 125 120
15 18 19 26 22 11 8 10 11 11 7 4 3 4 359 353 354 351 349 353 350 22 12 7 32 21 17 48 60 47 28 13 18 5 27 35 69 81 69 42 89 99 107
18 18 24 16 19 6 11 7 15 6 8 8 4 2 358 358 359 359 355 358 351 8 10 358 12 14 47 36 34 27 11 0 9 350 2 26 68 75 68 61 53 78 125
22 23 24 20 20 9 5 7 11 11 6 6 6 360 1 2 0 0 352 355 351 357 3 1 1 31 39 32 23 20 13 360 354 348 332 19 48 70 78 91 97 103 92